Year,Month,Day,Hour,Minute,Value (Times are PST for temperature in C)
2008,06,16,00,00,11.90
2008,06,16,00,01,11.80
2008,06,16,00,02,11.80
2008,06,16,00,03,11.80
2008,06,16,00,04,11.80
2008,06,16,00,05,11.70
2008,06,16,00,06,11.70
2008,06,16,00,07,11.70
2008,06,16,00,08,11.60
2008,06,16,00,09,11.60
2008,06,16,00,10,11.60
2008,06,16,00,11,11.70
2008,06,16,00,12,11.70
2008,06,16,00,13,11.70
2008,06,16,00,14,11.70
2008,06,16,00,15,11.70
2008,06,16,00,16,11.70
2008,06,16,00,17,11.80
2008,06,16,00,18,11.80
2008,06,16,00,19,11.80
2008,06,16,00,20,11.80
2008,06,16,00,21,11.80
2008,06,16,00,22,11.80
2008,06,16,00,23,11.70
2008,06,16,00,24,11.80
2008,06,16,00,25,11.80
2008,06,16,00,26,11.80
2008,06,16,00,27,11.70
2008,06,16,00,28,11.70
2008,06,16,00,29,11.70
2008,06,16,00,30,11.70
2008,06,16,00,31,11.70
2008,06,16,00,32,11.70
2008,06,16,00,33,11.70
2008,06,16,00,34,11.70
2008,06,16,00,35,11.70
2008,06,16,00,36,11.70
2008,06,16,00,37,11.70
2008,06,16,00,38,11.70
2008,06,16,00,39,11.70
2008,06,16,00,40,11.70
2008,06,16,00,41,11.60
2008,06,16,00,42,11.60
2008,06,16,00,43,11.60
2008,06,16,00,44,11.60
2008,06,16,00,45,11.60
2008,06,16,00,46,11.60
2008,06,16,00,47,11.60
2008,06,16,00,48,11.60
2008,06,16,00,49,11.60
2008,06,16,00,50,11.60
2008,06,16,00,51,11.60
2008,06,16,00,52,11.60
2008,06,16,00,53,11.40
2008,06,16,00,54,11.40
2008,06,16,00,55,11.40
2008,06,16,00,56,11.40
2008,06,16,00,57,11.30
2008,06,16,00,58,11.30
2008,06,16,00,59,11.30
2008,06,16,01,00,11.20
2008,06,16,01,01,11.20
2008,06,16,01,02,11.20
2008,06,16,01,03,11.20
2008,06,16,01,04,11.20
2008,06,16,01,05,11.20
2008,06,16,01,06,11.10
2008,06,16,01,07,11.10
2008,06,16,01,08,11.10
2008,06,16,01,09,11.10
2008,06,16,01,10,11.10
2008,06,16,01,11,11.10
2008,06,16,01,12,11.10
2008,06,16,01,13,11.10
2008,06,16,01,14,11.00
2008,06,16,01,15,10.90
2008,06,16,01,16,10.90
2008,06,16,01,17,10.90
2008,06,16,01,18,10.90
2008,06,16,01,19,10.90
2008,06,16,01,20,10.90
2008,06,16,01,21,10.90
2008,06,16,01,22,10.90
2008,06,16,01,23,10.80
2008,06,16,01,24,10.80
2008,06,16,01,25,10.80
2008,06,16,01,26,10.80
2008,06,16,01,27,10.80
2008,06,16,01,28,10.80
2008,06,16,01,29,10.80
2008,06,16,01,30,10.80
2008,06,16,01,31,10.80
2008,06,16,01,32,10.80
2008,06,16,01,33,10.80
2008,06,16,01,34,10.80
2008,06,16,01,35,10.70
2008,06,16,01,36,10.70
2008,06,16,01,37,10.70
2008,06,16,01,38,10.70
2008,06,16,01,39,10.70
2008,06,16,01,40,10.70
2008,06,16,01,41,10.60
2008,06,16,01,42,10.60
2008,06,16,01,43,10.60
2008,06,16,01,44,10.60
2008,06,16,01,45,10.60
2008,06,16,01,46,10.60
2008,06,16,01,47,10.60
2008,06,16,01,48,10.60
2008,06,16,01,49,10.60
2008,06,16,01,50,10.60
2008,06,16,01,51,10.60
2008,06,16,01,52,10.60
2008,06,16,01,53,10.60
2008,06,16,01,54,10.60
2008,06,16,01,55,10.50
2008,06,16,01,56,10.40
2008,06,16,01,57,10.40
2008,06,16,01,58,10.40
2008,06,16,01,59,10.40
2008,06,16,02,00,10.40
2008,06,16,02,01,10.40
2008,06,16,02,02,10.40
2008,06,16,02,03,10.40
2008,06,16,02,04,10.40
2008,06,16,02,05,10.40
2008,06,16,02,06,10.40
2008,06,16,02,07,10.40
2008,06,16,02,08,10.30
2008,06,16,02,09,10.30
2008,06,16,02,10,10.30
2008,06,16,02,11,10.30
2008,06,16,02,12,10.30
2008,06,16,02,13,10.20
2008,06,16,02,14,10.20
2008,06,16,02,15,10.20
2008,06,16,02,16,10.20
2008,06,16,02,17,10.20
2008,06,16,02,18,10.20
2008,06,16,02,19,10.20
2008,06,16,02,20,10.20
2008,06,16,02,21,10.20
2008,06,16,02,22,10.20
2008,06,16,02,23,10.20
2008,06,16,02,24,10.20
2008,06,16,02,25,10.10
2008,06,16,02,26,10.10
2008,06,16,02,27,10.10
2008,06,16,02,28,10.10
2008,06,16,02,29,10.10
2008,06,16,02,30,10.10
2008,06,16,02,31,10.10
2008,06,16,02,32,10.10
2008,06,16,02,33,10.10
2008,06,16,02,34,10.10
2008,06,16,02,35,10.10
2008,06,16,02,36,10.10
2008,06,16,02,37,10.10
2008,06,16,02,38,10.10
2008,06,16,02,39,10.10
2008,06,16,02,40,10.10
2008,06,16,02,41,10.10
2008,06,16,02,42,10.10
2008,06,16,02,43,10.10
2008,06,16,02,44,10.10
2008,06,16,02,45,10.10
2008,06,16,02,46,10.10
2008,06,16,02,47,10.10
2008,06,16,02,48,10.00
2008,06,16,02,49,9.90
2008,06,16,02,50,9.90
2008,06,16,02,51,9.90
2008,06,16,02,52,9.90
2008,06,16,02,53,9.90
2008,06,16,02,54,9.90
2008,06,16,02,55,9.90
2008,06,16,02,56,9.90
2008,06,16,02,57,9.90
2008,06,16,02,58,9.90
2008,06,16,02,59,9.90
2008,06,16,03,00,9.90
2008,06,16,03,01,9.90
2008,06,16,03,02,9.90
2008,06,16,03,03,9.90
2008,06,16,03,04,9.90
2008,06,16,03,05,9.90
2008,06,16,03,06,9.90
2008,06,16,03,07,9.90
2008,06,16,03,08,9.90
2008,06,16,03,09,9.90
2008,06,16,03,10,9.90
2008,06,16,03,11,9.90
2008,06,16,03,12,9.90
2008,06,16,03,13,9.90
2008,06,16,03,14,9.90
2008,06,16,03,15,9.90
2008,06,16,03,16,9.90
2008,06,16,03,17,9.90
2008,06,16,03,18,9.90
2008,06,16,03,19,9.80
2008,06,16,03,20,9.80
2008,06,16,03,21,9.80
2008,06,16,03,22,9.80
2008,06,16,03,23,9.80
2008,06,16,03,24,9.70
2008,06,16,03,25,9.70
2008,06,16,03,26,9.70
2008,06,16,03,27,9.70
2008,06,16,03,28,9.70
2008,06,16,03,29,9.70
2008,06,16,03,30,9.60
2008,06,16,03,31,9.60
2008,06,16,03,32,9.60
2008,06,16,03,33,9.50
2008,06,16,03,34,9.50
2008,06,16,03,35,9.50
2008,06,16,03,36,9.50
2008,06,16,03,37,9.50
2008,06,16,03,38,9.50
2008,06,16,03,39,9.50
2008,06,16,03,40,9.50
2008,06,16,03,41,9.50
2008,06,16,03,42,9.60
2008,06,16,03,43,9.60
2008,06,16,03,44,9.60
2008,06,16,03,45,9.60
2008,06,16,03,46,9.50
2008,06,16,03,47,9.50
2008,06,16,03,48,9.50
2008,06,16,03,49,9.40
2008,06,16,03,50,9.40
2008,06,16,03,51,9.40
2008,06,16,03,52,9.30
2008,06,16,03,53,9.30
2008,06,16,03,54,9.30
2008,06,16,03,55,9.20
2008,06,16,03,56,9.20
2008,06,16,03,57,9.20
2008,06,16,03,58,9.30
2008,06,16,03,59,9.30
2008,06,16,04,00,9.30
2008,06,16,04,01,9.30
2008,06,16,04,02,9.40
2008,06,16,04,03,9.40
2008,06,16,04,04,9.40
2008,06,16,04,05,9.40
2008,06,16,04,06,9.40
2008,06,16,04,07,9.40
2008,06,16,04,08,9.40
2008,06,16,04,09,9.30
2008,06,16,04,10,9.30
2008,06,16,04,11,9.30
2008,06,16,04,12,9.30
2008,06,16,04,13,9.20
2008,06,16,04,14,9.20
2008,06,16,04,15,9.20
2008,06,16,04,16,9.20
2008,06,16,04,17,9.20
2008,06,16,04,18,9.10
2008,06,16,04,19,9.00
2008,06,16,04,20,9.00
2008,06,16,04,21,9.00
2008,06,16,04,22,8.90
2008,06,16,04,23,8.90
2008,06,16,04,24,8.90
2008,06,16,04,25,8.80
2008,06,16,04,26,8.80
2008,06,16,04,27,8.80
2008,06,16,04,28,8.70
2008,06,16,04,29,8.70
2008,06,16,04,30,8.70
2008,06,16,04,31,8.70
2008,06,16,04,32,8.70
2008,06,16,04,33,8.70
2008,06,16,04,34,8.60
2008,06,16,04,35,8.60
2008,06,16,04,36,8.60
2008,06,16,04,37,8.50
2008,06,16,04,38,8.50
2008,06,16,04,39,8.50
2008,06,16,04,40,8.50
2008,06,16,04,41,8.50
2008,06,16,04,42,8.40
2008,06,16,04,43,8.40
2008,06,16,04,44,8.40
2008,06,16,04,45,8.40
2008,06,16,04,46,8.40
2008,06,16,04,47,8.30
2008,06,16,04,48,8.30
2008,06,16,04,49,8.30
2008,06,16,04,50,8.30
2008,06,16,04,51,8.30
2008,06,16,04,52,8.30
2008,06,16,04,53,8.30
2008,06,16,04,54,8.30
2008,06,16,04,55,8.20
2008,06,16,04,56,8.20
2008,06,16,04,57,8.20
2008,06,16,04,58,8.20
2008,06,16,04,59,8.20
2008,06,16,05,00,8.20
2008,06,16,05,01,8.20
2008,06,16,05,02,8.20
2008,06,16,05,03,8.20
2008,06,16,05,04,8.10
2008,06,16,05,05,8.10
2008,06,16,05,06,8.10
2008,06,16,05,07,8.00
2008,06,16,05,08,8.00
2008,06,16,05,09,8.00
2008,06,16,05,10,8.00
2008,06,16,05,11,8.00
2008,06,16,05,12,8.00
2008,06,16,05,13,8.00
2008,06,16,05,14,8.00
2008,06,16,05,15,8.00
2008,06,16,05,16,8.00
2008,06,16,05,17,8.00
2008,06,16,05,18,8.00
2008,06,16,05,19,8.10
2008,06,16,05,20,8.20
2008,06,16,05,21,8.20
2008,06,16,05,22,8.20
2008,06,16,05,23,8.20
2008,06,16,05,24,8.20
2008,06,16,05,25,8.20
2008,06,16,05,26,8.30
2008,06,16,05,27,8.30
2008,06,16,05,28,8.20
2008,06,16,05,29,8.20
2008,06,16,05,30,8.20
2008,06,16,05,31,8.20
2008,06,16,05,32,8.30
2008,06,16,05,33,8.30
2008,06,16,05,34,8.30
2008,06,16,05,35,8.40
2008,06,16,05,36,8.40
2008,06,16,05,37,8.50
2008,06,16,05,38,8.50
2008,06,16,05,39,8.50
2008,06,16,05,40,8.50
2008,06,16,05,41,8.60
2008,06,16,05,42,8.60
2008,06,16,05,43,8.70
2008,06,16,05,44,8.70
2008,06,16,05,45,8.70
2008,06,16,05,46,8.70
2008,06,16,05,47,8.70
2008,06,16,05,48,8.80
2008,06,16,05,49,8.80
2008,06,16,05,50,8.80
2008,06,16,05,51,8.80
2008,06,16,05,52,8.90
2008,06,16,05,53,8.90
2008,06,16,05,54,9.00
2008,06,16,05,55,9.00
2008,06,16,05,56,9.00
2008,06,16,05,57,9.10
2008,06,16,05,58,9.10
2008,06,16,05,59,9.20
2008,06,16,06,00,9.20
2008,06,16,06,01,9.20
2008,06,16,06,02,9.30
2008,06,16,06,03,9.30
2008,06,16,06,04,9.30
2008,06,16,06,05,9.40
2008,06,16,06,06,9.40
2008,06,16,06,07,9.50
2008,06,16,06,08,9.50
2008,06,16,06,09,9.60
2008,06,16,06,10,9.60
2008,06,16,06,11,9.70
2008,06,16,06,12,9.70
2008,06,16,06,13,9.70
2008,06,16,06,14,9.70
2008,06,16,06,15,9.70
2008,06,16,06,16,9.70
2008,06,16,06,17,9.80
2008,06,16,06,18,9.80
2008,06,16,06,19,9.90
2008,06,16,06,20,9.90
2008,06,16,06,21,9.90
2008,06,16,06,22,9.90
2008,06,16,06,23,10.10
2008,06,16,06,24,10.10
2008,06,16,06,25,10.10
2008,06,16,06,26,10.20
2008,06,16,06,27,10.30
2008,06,16,06,28,10.30
2008,06,16,06,29,10.40
2008,06,16,06,30,10.40
2008,06,16,06,31,10.40
2008,06,16,06,32,10.60
2008,06,16,06,33,10.60
2008,06,16,06,34,10.60
2008,06,16,06,35,10.60
2008,06,16,06,36,10.70
2008,06,16,06,37,10.70
2008,06,16,06,38,10.70
2008,06,16,06,39,10.80
2008,06,16,06,40,10.80
2008,06,16,06,41,10.80
2008,06,16,06,42,10.80
2008,06,16,06,43,10.90
2008,06,16,06,44,10.90
2008,06,16,06,45,10.90
2008,06,16,06,46,10.90
2008,06,16,06,47,10.90
2008,06,16,06,48,10.90
2008,06,16,06,49,10.90
2008,06,16,06,50,10.90
2008,06,16,06,51,10.90
2008,06,16,06,52,10.90
2008,06,16,06,53,10.90
2008,06,16,06,54,10.90
2008,06,16,06,55,10.90
2008,06,16,06,56,10.90
2008,06,16,06,57,10.90
2008,06,16,06,58,10.90
2008,06,16,06,59,10.90
2008,06,16,07,00,10.90
2008,06,16,07,01,10.90
2008,06,16,07,02,10.90
2008,06,16,07,03,10.90
2008,06,16,07,04,10.90
2008,06,16,07,05,10.90
2008,06,16,07,06,10.90
2008,06,16,07,07,10.90
2008,06,16,07,08,10.90
2008,06,16,07,09,10.90
2008,06,16,07,10,10.90
2008,06,16,07,11,10.90
2008,06,16,07,12,10.90
2008,06,16,07,13,11.00
2008,06,16,07,14,11.10
2008,06,16,07,15,11.10
2008,06,16,07,16,11.20
2008,06,16,07,17,11.20
2008,06,16,07,18,11.20
2008,06,16,07,19,11.30
2008,06,16,07,20,11.30
2008,06,16,07,21,11.40
2008,06,16,07,22,11.40
2008,06,16,07,23,11.50
2008,06,16,07,24,11.60
2008,06,16,07,25,11.60
2008,06,16,07,26,11.70
2008,06,16,07,27,11.80
2008,06,16,07,28,11.80
2008,06,16,07,29,11.90
2008,06,16,07,30,11.90
2008,06,16,07,31,12.00
2008,06,16,07,32,12.00
2008,06,16,07,33,12.00
2008,06,16,07,34,12.00
2008,06,16,07,35,12.10
2008,06,16,07,36,12.20
2008,06,16,07,37,12.20
2008,06,16,07,38,12.30
2008,06,16,07,39,12.30
2008,06,16,07,40,12.40
2008,06,16,07,41,12.50
2008,06,16,07,42,12.50
2008,06,16,07,43,12.60
2008,06,16,07,44,12.60
2008,06,16,07,45,12.70
2008,06,16,07,46,12.80
2008,06,16,07,47,12.80
2008,06,16,07,48,12.80
2008,06,16,07,49,12.80
2008,06,16,07,50,12.80
2008,06,16,07,51,12.90
2008,06,16,07,52,13.00
2008,06,16,07,53,13.00
2008,06,16,07,54,13.00
2008,06,16,07,55,13.00
2008,06,16,07,56,13.10
2008,06,16,07,57,13.10
2008,06,16,07,58,13.10
2008,06,16,07,59,13.10
2008,06,16,08,00,13.20
2008,06,16,08,01,13.20
2008,06,16,08,02,13.10
2008,06,16,08,03,13.10
2008,06,16,08,04,13.10
2008,06,16,08,05,13.10
2008,06,16,08,06,13.20
2008,06,16,08,07,13.20
2008,06,16,08,08,13.30
2008,06,16,08,09,13.40
2008,06,16,08,10,13.50
2008,06,16,08,11,13.60
2008,06,16,08,12,13.60
2008,06,16,08,13,13.70
2008,06,16,08,14,13.70
2008,06,16,08,15,13.80
2008,06,16,08,16,13.90
2008,06,16,08,17,14.00
2008,06,16,08,18,14.00
2008,06,16,08,19,14.20
2008,06,16,08,20,14.30
2008,06,16,08,21,14.30
2008,06,16,08,22,14.40
2008,06,16,08,23,14.40
2008,06,16,08,24,14.50
2008,06,16,08,25,14.60
2008,06,16,08,26,14.60
2008,06,16,08,27,14.60
2008,06,16,08,28,14.50
2008,06,16,08,29,14.50
2008,06,16,08,30,14.50
2008,06,16,08,31,14.50
2008,06,16,08,32,14.50
2008,06,16,08,33,14.50
2008,06,16,08,34,14.40
2008,06,16,08,35,14.40
2008,06,16,08,36,14.40
2008,06,16,08,37,14.50
2008,06,16,08,38,14.70
2008,06,16,08,39,14.70
2008,06,16,08,40,14.80
2008,06,16,08,41,14.80
2008,06,16,08,42,14.80
2008,06,16,08,43,14.90
2008,06,16,08,44,14.90
2008,06,16,08,45,15.00
2008,06,16,08,46,15.00
2008,06,16,08,47,15.10
2008,06,16,08,48,15.20
2008,06,16,08,49,15.30
2008,06,16,08,50,15.30
2008,06,16,08,51,15.30
2008,06,16,08,52,15.40
2008,06,16,08,53,15.50
2008,06,16,08,54,15.60
2008,06,16,08,55,15.60
2008,06,16,08,56,15.70
2008,06,16,08,57,15.80
2008,06,16,08,58,15.80
2008,06,16,08,59,15.70
2008,06,16,09,00,15.70
2008,06,16,09,01,15.70
2008,06,16,09,02,15.80
2008,06,16,09,03,15.80
2008,06,16,09,04,15.80
2008,06,16,09,05,15.70
2008,06,16,09,06,15.60
2008,06,16,09,07,15.60
2008,06,16,09,08,15.60
2008,06,16,09,09,15.60
2008,06,16,09,10,15.60
2008,06,16,09,11,15.60
2008,06,16,09,12,15.60
2008,06,16,09,13,15.60
2008,06,16,09,14,15.70
2008,06,16,09,15,15.80
2008,06,16,09,16,15.80
2008,06,16,09,17,15.90
2008,06,16,09,18,16.10
2008,06,16,09,19,16.20
2008,06,16,09,20,16.30
2008,06,16,09,21,16.40
2008,06,16,09,22,16.60
2008,06,16,09,23,16.70
2008,06,16,09,24,16.80
2008,06,16,09,25,16.90
2008,06,16,09,26,17.00
2008,06,16,09,27,17.00
2008,06,16,09,28,17.10
2008,06,16,09,29,17.10
2008,06,16,09,30,17.10
2008,06,16,09,31,17.20
2008,06,16,09,32,17.20
2008,06,16,09,33,17.20
2008,06,16,09,34,17.20
2008,06,16,09,35,17.20
2008,06,16,09,36,17.20
2008,06,16,09,37,17.20
2008,06,16,09,38,17.20
2008,06,16,09,39,17.20
2008,06,16,09,40,17.20
2008,06,16,09,41,17.10
2008,06,16,09,42,17.10
2008,06,16,09,43,17.20
2008,06,16,09,44,17.30
2008,06,16,09,45,17.30
2008,06,16,09,46,17.30
2008,06,16,09,47,17.40
2008,06,16,09,48,17.50
2008,06,16,09,49,17.60
2008,06,16,09,50,17.70
2008,06,16,09,51,17.70
2008,06,16,09,52,17.80
2008,06,16,09,53,17.90
2008,06,16,09,54,17.90
2008,06,16,09,55,17.90
2008,06,16,09,56,17.90
2008,06,16,09,57,17.90
2008,06,16,09,58,17.80
2008,06,16,09,59,17.80
2008,06,16,10,00,17.70
2008,06,16,10,01,17.70
2008,06,16,10,02,17.70
2008,06,16,10,03,17.80
2008,06,16,10,04,17.80
2008,06,16,10,05,17.80
2008,06,16,10,06,17.80
2008,06,16,10,07,17.60
2008,06,16,10,08,17.60
2008,06,16,10,09,17.60
2008,06,16,10,10,17.60
2008,06,16,10,11,17.60
2008,06,16,10,12,17.50
2008,06,16,10,13,17.50
2008,06,16,10,14,17.40
2008,06,16,10,15,17.30
2008,06,16,10,16,17.30
2008,06,16,10,17,17.40
2008,06,16,10,18,17.40
2008,06,16,10,19,17.40
2008,06,16,10,20,17.50
2008,06,16,10,21,17.50
2008,06,16,10,22,17.60
2008,06,16,10,23,17.70
2008,06,16,10,24,17.80
2008,06,16,10,25,17.80
2008,06,16,10,26,17.80
2008,06,16,10,27,17.80
2008,06,16,10,28,17.70
2008,06,16,10,29,17.60
2008,06,16,10,30,17.50
2008,06,16,10,31,17.60
2008,06,16,10,32,17.60
2008,06,16,10,33,17.50
2008,06,16,10,34,17.50
2008,06,16,10,35,17.50
2008,06,16,10,36,17.50
2008,06,16,10,37,17.50
2008,06,16,10,38,17.50
2008,06,16,10,39,17.40
2008,06,16,10,40,17.40
2008,06,16,10,41,17.30
2008,06,16,10,42,17.40
2008,06,16,10,43,17.50
2008,06,16,10,44,17.60
2008,06,16,10,45,17.80
2008,06,16,10,46,17.90
2008,06,16,10,47,18.00
2008,06,16,10,48,18.20
2008,06,16,10,49,18.20
2008,06,16,10,50,18.20
2008,06,16,10,51,18.10
2008,06,16,10,52,17.90
2008,06,16,10,53,17.90
2008,06,16,10,54,17.80
2008,06,16,10,55,17.70
2008,06,16,10,56,17.60
2008,06,16,10,57,17.40
2008,06,16,10,58,17.50
2008,06,16,10,59,17.60
2008,06,16,11,00,17.70
2008,06,16,11,01,17.70
2008,06,16,11,02,17.80
2008,06,16,11,03,17.90
2008,06,16,11,04,17.90
2008,06,16,11,05,17.70
2008,06,16,11,06,17.70
2008,06,16,11,07,17.70
2008,06,16,11,08,17.60
2008,06,16,11,09,17.50
2008,06,16,11,10,17.40
2008,06,16,11,11,17.30
2008,06,16,11,12,17.20
2008,06,16,11,13,17.30
2008,06,16,11,14,17.30
2008,06,16,11,15,17.30
2008,06,16,11,16,17.40
2008,06,16,11,17,17.40
2008,06,16,11,18,17.50
2008,06,16,11,19,17.70
2008,06,16,11,20,17.80
2008,06,16,11,21,17.80
2008,06,16,11,22,17.90
2008,06,16,11,23,18.00
2008,06,16,11,24,18.20
2008,06,16,11,25,18.20
2008,06,16,11,26,18.20
2008,06,16,11,27,18.30
2008,06,16,11,28,18.40
2008,06,16,11,29,18.40
2008,06,16,11,30,18.40
2008,06,16,11,31,18.40
2008,06,16,11,32,18.40
2008,06,16,11,33,18.40
2008,06,16,11,34,18.40
2008,06,16,11,35,18.40
2008,06,16,11,36,18.50
2008,06,16,11,37,18.60
2008,06,16,11,38,18.70
2008,06,16,11,39,18.70
2008,06,16,11,40,18.70
2008,06,16,11,41,18.70
2008,06,16,11,42,18.70
2008,06,16,11,43,18.70
2008,06,16,11,44,18.50
2008,06,16,11,45,18.40
2008,06,16,11,46,18.40
2008,06,16,11,47,18.30
2008,06,16,11,48,18.20
2008,06,16,11,49,18.00
2008,06,16,11,50,17.90
2008,06,16,11,51,17.80
2008,06,16,11,52,17.70
2008,06,16,11,53,17.70
2008,06,16,11,54,17.80
2008,06,16,11,55,17.80
2008,06,16,11,56,17.90
2008,06,16,11,57,17.90
2008,06,16,11,58,17.90
2008,06,16,11,59,17.90
2008,06,16,12,00,18.10
2008,06,16,12,01,18.20
2008,06,16,12,02,18.30
2008,06,16,12,03,18.30
2008,06,16,12,04,18.20
2008,06,16,12,05,18.20
2008,06,16,12,06,18.20
2008,06,16,12,07,18.40
2008,06,16,12,08,18.40
2008,06,16,12,09,18.40
2008,06,16,12,10,18.20
2008,06,16,12,11,18.10
2008,06,16,12,12,18.10
2008,06,16,12,13,18.10
2008,06,16,12,14,18.20
2008,06,16,12,15,18.20
2008,06,16,12,16,18.20
2008,06,16,12,17,18.20
2008,06,16,12,18,18.30
2008,06,16,12,19,18.40
2008,06,16,12,20,18.50
2008,06,16,12,21,18.50
2008,06,16,12,22,18.50
2008,06,16,12,23,18.40
2008,06,16,12,24,18.30
2008,06,16,12,25,18.20
2008,06,16,12,26,18.20
2008,06,16,12,27,18.20
2008,06,16,12,28,18.20
2008,06,16,12,29,18.20
2008,06,16,12,30,18.20
2008,06,16,12,31,18.20
2008,06,16,12,32,18.30
2008,06,16,12,33,18.40
2008,06,16,12,34,18.50
2008,06,16,12,35,18.40
2008,06,16,12,36,18.30
2008,06,16,12,37,18.30
2008,06,16,12,38,18.30
2008,06,16,12,39,18.30
2008,06,16,12,40,18.30
2008,06,16,12,41,18.30
2008,06,16,12,42,18.40
2008,06,16,12,43,18.50
2008,06,16,12,44,18.50
2008,06,16,12,45,18.50
2008,06,16,12,46,18.40
2008,06,16,12,47,18.30
2008,06,16,12,48,18.30
2008,06,16,12,49,18.30
2008,06,16,12,50,18.20
2008,06,16,12,51,18.20
2008,06,16,12,52,18.20
2008,06,16,12,53,18.20
2008,06,16,12,54,18.20
2008,06,16,12,55,18.20
2008,06,16,12,56,18.30
2008,06,16,12,57,18.30
2008,06,16,12,58,18.40
2008,06,16,12,59,18.50
2008,06,16,13,00,18.60
2008,06,16,13,01,18.50
2008,06,16,13,02,18.50
2008,06,16,13,03,18.40
2008,06,16,13,04,18.50
2008,06,16,13,05,18.40
2008,06,16,13,06,18.30
2008,06,16,13,07,18.20
2008,06,16,13,08,18.20
2008,06,16,13,09,18.20
2008,06,16,13,10,18.30
2008,06,16,13,11,18.30
2008,06,16,13,12,18.20
2008,06,16,13,13,18.20
2008,06,16,13,14,18.20
2008,06,16,13,15,18.20
2008,06,16,13,16,18.20
2008,06,16,13,17,18.10
2008,06,16,13,18,18.20
2008,06,16,13,19,18.30
2008,06,16,13,20,18.40
2008,06,16,13,21,18.30
2008,06,16,13,22,18.40
2008,06,16,13,23,18.40
2008,06,16,13,24,18.40
2008,06,16,13,25,18.20
2008,06,16,13,26,18.20
2008,06,16,13,27,18.10
2008,06,16,13,28,18.10
2008,06,16,13,29,18.10
2008,06,16,13,30,18.00
2008,06,16,13,31,18.00
2008,06,16,13,32,18.10
2008,06,16,13,33,18.10
2008,06,16,13,34,18.20
2008,06,16,13,35,18.40
2008,06,16,13,36,18.50
2008,06,16,13,37,18.70
2008,06,16,13,38,18.80
2008,06,16,13,39,18.80
2008,06,16,13,40,18.90
2008,06,16,13,41,18.90
2008,06,16,13,42,18.90
2008,06,16,13,43,18.90
2008,06,16,13,44,18.90
2008,06,16,13,45,18.80
2008,06,16,13,46,18.90
2008,06,16,13,47,18.80
2008,06,16,13,48,18.80
2008,06,16,13,49,18.80
2008,06,16,13,50,18.80
2008,06,16,13,51,18.80
2008,06,16,13,52,18.80
2008,06,16,13,53,18.80
2008,06,16,13,54,18.90
2008,06,16,13,55,19.00
2008,06,16,13,56,19.10
2008,06,16,13,57,19.10
2008,06,16,13,58,19.10
2008,06,16,13,59,19.10
2008,06,16,14,00,19.00
2008,06,16,14,01,18.90
2008,06,16,14,02,18.70
2008,06,16,14,03,18.60
2008,06,16,14,04,18.50
2008,06,16,14,05,18.50
2008,06,16,14,06,18.50
2008,06,16,14,07,18.70
2008,06,16,14,08,18.80
2008,06,16,14,09,18.90
2008,06,16,14,10,18.90
2008,06,16,14,11,18.70
2008,06,16,14,12,18.60
2008,06,16,14,13,18.40
2008,06,16,14,14,18.20
2008,06,16,14,15,18.10
2008,06,16,14,16,18.00
2008,06,16,14,17,17.90
2008,06,16,14,18,17.90
2008,06,16,14,19,18.00
2008,06,16,14,20,18.10
2008,06,16,14,21,18.10
2008,06,16,14,22,18.20
2008,06,16,14,23,18.20
2008,06,16,14,24,18.20
2008,06,16,14,25,18.20
2008,06,16,14,26,18.30
2008,06,16,14,27,18.20
2008,06,16,14,28,18.20
2008,06,16,14,29,18.20
2008,06,16,14,30,18.30
2008,06,16,14,31,18.30
2008,06,16,14,32,18.30
2008,06,16,14,33,18.40
2008,06,16,14,34,18.40
2008,06,16,14,35,18.50
2008,06,16,14,36,18.50
2008,06,16,14,37,18.60
2008,06,16,14,38,18.60
2008,06,16,14,39,18.50
2008,06,16,14,40,18.40
2008,06,16,14,41,18.30
2008,06,16,14,42,18.40
2008,06,16,14,43,18.50
2008,06,16,14,44,18.50
2008,06,16,14,45,18.70
2008,06,16,14,46,18.80
2008,06,16,14,47,18.70
2008,06,16,14,48,18.60
2008,06,16,14,49,18.50
2008,06,16,14,50,18.50
2008,06,16,14,51,18.60
2008,06,16,14,52,18.60
2008,06,16,14,53,18.70
2008,06,16,14,54,18.80
2008,06,16,14,55,19.00
2008,06,16,14,56,19.10
2008,06,16,14,57,19.20
2008,06,16,14,58,19.20
2008,06,16,14,59,19.00
2008,06,16,15,00,18.90
2008,06,16,15,01,18.70
2008,06,16,15,02,18.60
2008,06,16,15,03,18.50
2008,06,16,15,04,18.40
2008,06,16,15,05,18.20
2008,06,16,15,06,18.20
2008,06,16,15,07,18.10
2008,06,16,15,08,18.00
2008,06,16,15,09,17.90
2008,06,16,15,10,17.70
2008,06,16,15,11,17.70
2008,06,16,15,12,17.80
2008,06,16,15,13,17.70
2008,06,16,15,14,17.70
2008,06,16,15,15,17.70
2008,06,16,15,16,17.70
2008,06,16,15,17,17.70
2008,06,16,15,18,17.50
2008,06,16,15,19,17.50
2008,06,16,15,20,17.50
2008,06,16,15,21,17.50
2008,06,16,15,22,17.40
2008,06,16,15,23,17.40
2008,06,16,15,24,17.40
2008,06,16,15,25,17.30
2008,06,16,15,26,17.30
2008,06,16,15,27,17.30
2008,06,16,15,28,17.30
2008,06,16,15,29,17.30
2008,06,16,15,30,17.30
2008,06,16,15,31,17.30
2008,06,16,15,32,17.30
2008,06,16,15,33,17.10
2008,06,16,15,34,17.00
2008,06,16,15,35,16.90
2008,06,16,15,36,16.80
2008,06,16,15,37,16.80
2008,06,16,15,38,16.80
2008,06,16,15,39,16.80
2008,06,16,15,40,16.90
2008,06,16,15,41,16.80
2008,06,16,15,42,16.90
2008,06,16,15,43,16.90
2008,06,16,15,44,17.00
2008,06,16,15,45,17.10
2008,06,16,15,46,17.10
2008,06,16,15,47,17.20
2008,06,16,15,48,17.20
2008,06,16,15,49,17.30
2008,06,16,15,50,17.30
2008,06,16,15,51,17.40
2008,06,16,15,52,17.50
2008,06,16,15,53,17.50
2008,06,16,15,54,17.50
2008,06,16,15,55,17.60
2008,06,16,15,56,17.70
2008,06,16,15,57,17.70
2008,06,16,15,58,17.80
2008,06,16,15,59,17.90
2008,06,16,16,00,17.90
2008,06,16,16,01,17.90
2008,06,16,16,02,17.90
2008,06,16,16,03,17.90
2008,06,16,16,04,17.80
2008,06,16,16,05,17.80
2008,06,16,16,06,17.80
2008,06,16,16,07,17.70
2008,06,16,16,08,17.70
2008,06,16,16,09,17.60
2008,06,16,16,10,17.50
2008,06,16,16,11,17.50
2008,06,16,16,12,17.50
2008,06,16,16,13,17.50
2008,06,16,16,14,17.50
2008,06,16,16,15,17.60
2008,06,16,16,16,17.70
2008,06,16,16,17,17.80
2008,06,16,16,18,17.80
2008,06,16,16,19,17.90
2008,06,16,16,20,17.90
2008,06,16,16,21,17.90
2008,06,16,16,22,17.90
2008,06,16,16,23,17.80
2008,06,16,16,24,17.70
2008,06,16,16,25,17.60
2008,06,16,16,26,17.60
2008,06,16,16,27,17.70
2008,06,16,16,28,17.70
2008,06,16,16,29,17.80
2008,06,16,16,30,17.80
2008,06,16,16,31,17.80
2008,06,16,16,32,17.70
2008,06,16,16,33,17.70
2008,06,16,16,34,17.50
2008,06,16,16,35,17.40
2008,06,16,16,36,17.40
2008,06,16,16,37,17.40
2008,06,16,16,38,17.40
2008,06,16,16,39,17.50
2008,06,16,16,40,17.70
2008,06,16,16,41,17.80
2008,06,16,16,42,17.90
2008,06,16,16,43,18.10
2008,06,16,16,44,18.20
2008,06,16,16,45,18.30
2008,06,16,16,46,18.40
2008,06,16,16,47,18.50
2008,06,16,16,48,18.50
2008,06,16,16,49,18.40
2008,06,16,16,50,18.40
2008,06,16,16,51,18.30
2008,06,16,16,52,18.30
2008,06,16,16,53,18.30
2008,06,16,16,54,18.20
2008,06,16,16,55,18.20
2008,06,16,16,56,18.20
2008,06,16,16,57,18.20
2008,06,16,16,58,18.20
2008,06,16,16,59,18.20
2008,06,16,17,00,18.20
2008,06,16,17,01,18.20
2008,06,16,17,02,18.10
2008,06,16,17,03,18.00
2008,06,16,17,04,17.90
2008,06,16,17,05,18.00
2008,06,16,17,06,18.10
2008,06,16,17,07,18.20
2008,06,16,17,08,18.20
2008,06,16,17,09,18.30
2008,06,16,17,10,18.20
2008,06,16,17,11,18.20
2008,06,16,17,12,18.20
2008,06,16,17,13,18.10
2008,06,16,17,14,17.90
2008,06,16,17,15,17.90
2008,06,16,17,16,17.80
2008,06,16,17,17,17.60
2008,06,16,17,18,17.40
2008,06,16,17,19,17.20
2008,06,16,17,20,17.00
2008,06,16,17,21,16.90
2008,06,16,17,22,16.70
2008,06,16,17,23,16.50
2008,06,16,17,24,16.40
2008,06,16,17,25,16.40
2008,06,16,17,26,16.30
2008,06,16,17,27,16.20
2008,06,16,17,28,16.20